Home > Weather > Qatif > Past weeks

Flag for Saudi Arabia Past Weather in Qatif, Saudi Arabia — Yesterday and Last 2 Weeks

Now
109 °F

Sunny.


Feels Like: 105 °F
Forecast: 85 / 107 °F
Wind: 7 mph from North

Location: King Fahd International Airport

Current Time: Aug 28, 2016 at 12:00:58 PM

Latest Report: Aug 28, 2016 at 11:00 AM


Visibility: 5 mi

Pressure: 29.65 "Hg

Humidity: 11%

Dew Point: 45 °F

Location of QatifLocation

Past Weather in Qatif — Graph

°F

Qatif Temperature Yesterday

Maximum temperature yesterday: 115 °F (at 1:00 PM)
Minimum temperature yesterday: 84 °F (at 4:00 AM)
Average temperature yesterday: 98 °F

High & Low Weather Summary for the Past Weeks

 TemperatureHumidityPressure
High120 °F (Aug 15, 2:00 PM)79% (Aug 25, 4:00 AM)29.68 "Hg (Aug 25, 4:00 AM)
Low81 °F (Aug 14, 6:00 AM)6% (Aug 15, 12:00 PM)29.42 "Hg (Aug 18, 3:00 PM)
Average98 °F34%29.54 "Hg
* Reported Aug 13 11:00 AM — Aug 28 11:00 AM, Qatif, Weather by CustomWeather, © 2016

Note: Actual official high and low records may vary slightly from our data, if they occured in-between our weather recording intervals... More about our weather records

Advertising

Qatif Weather History for the Previous 24 Hours

Scroll right to see more
 ConditionsComfort  
Time TempWeatherWind HumidityBarometerVisibility
11:00 AM
Sun, Aug 28
109 °FSunny.7 mph11%29.65 "Hg5 mi
10:00 AM106 °FClear.8 mph15%29.65 "Hg5 mi
9:00 AM100 °FClear.No wind21%29.65 "Hg5 mi
8:00 AM91 °FSunny.5 mph32%29.65 "Hg10 mi
7:00 AM86 °FSunny.6 mph40%29.65 "Hg10 mi
6:00 AM84 °FSunny.8 mph45%29.62 "Hg10 mi
5:00 AM84 °FClear.7 mph55%29.62 "Hg10 mi
4:00 AM84 °FClear.3 mph55%29.59 "Hg10 mi
3:00 AM86 °FClear.No wind59%29.59 "Hg10 mi
2:00 AM86 °FClear.12 mph55%29.62 "Hg10 mi
1:00 AM86 °FClear.5 mph52%29.62 "Hg10 mi
12:00 AM90 °FClear.6 mph43%29.62 "Hg10 mi
11:00 PM
Sat, Aug 27
88 °FClear.2 mph49%29.62 "Hg10 mi
10:00 PM91 °FClear.6 mph46%29.62 "Hg10 mi
9:00 PM93 °FClear.5 mph47%29.62 "Hg10 mi
8:00 PM97 °FClear.No wind42%29.62 "Hg10 mi
7:00 PM99 °FClear.5 mph35%29.59 "Hg6 mi
6:00 PM102 °FClear.7 mph29%29.59 "Hg4 mi
5:00 PM108 °FSunny.10 mph19%29.59 "Hg10 mi
4:00 PM111 °FSunny.15 mph11%29.59 "Hg10 mi
3:00 PM113 °FClear.13 mph11%29.59 "Hg6 mi
2:00 PM115 °FClear.13 mph10%29.59 "Hg6 mi
1:00 PM115 °FSunny.12 mph10%29.62 "Hg6 mi
12:00 PM113 °FSunny.10 mph9%29.65 "Hg10 mi
Weather by CustomWeather, © 2016

See weather overviewHow to use our weather pages